Location: Lafig�re
(44.4503°N, 4.0357°E)
Time: 07:47:16
(UTC+00:00)

Cosmos 1092 Rocket - Pass Details

Date: 31 January 2021
Orbit: 954 x 994 km, 83.0° (Epoch: 08 March)

Event Time Altitude Azimuth Distance (km) Brightness Sun altitude
Rises 04:25:24 0° 353° (N) 3,648 7.0 -28.3°
Reaches altitude 10° 04:27:55 10° 355° (N) 2,702 6.3 -27.9°
Maximum altitude 04:34:06 76° 81° (E) 997 4.0 -26.8°
Drops below altitude 10° 04:40:18 10° 167° (SSE) 2,707 6.4 -25.7°
Sets 04:42:49 0° 169° (S) 3,656 7.1 -25.2°
